CW8374 Weather Reports


time (UTC)temp
C
wind
direction
speed
KPH
gust
KPH
rain 1hr
cm
rain 24hr
cm
rain mn
cm
humidity
%
barometer
mb
20260507111403 10 134 4.8 14.5 0.00 0.00 0.00 3 1011.5
20260507104404 8 140 4.8 19.3 0.00 0.00 0.00 3 1011.7
20260507103404 8 132 4.8 16.1 0.00 0.00 0.00 3 1011.7
20260507101404 8 132 1.6 8.0 0.00 0.00 0.00 3 1011.7
20260507100903 8 127 1.6 16.1 0.00 0.00 0.00 3 1011.7
20260507094904 7 133 1.6 9.7 0.00 0.00 0.00 3 1011.7
20260507094404 7 140 0.0 14.5 0.00 0.00 0.00 3 1011.8
20260507093904 7 129 4.8 19.3 0.00 0.00 0.00 3 1011.8
20260507093405 7 119 3.2 16.1 0.00 0.00 0.00 3 1011.8
20260507091403 7 135 1.6 9.7 0.00 0.00 0.00 3 1011.8
20260507090905 7 103 1.6 8.0 0.00 0.00 0.00 3 1011.8
20260507084904 7 117 1.6 9.7 0.00 0.00 0.00 3 1011.7
20260507081403 7 135 1.6 11.3 0.00 0.00 0.00 3 1011.7
20260507074904 7 127 1.6 9.7 0.00 0.00 0.00 3 1011.7
20260507074404 7 153 1.6 9.7 0.00 0.00 0.00 3 1011.7
20260507073404 7 120 1.6 19.3 0.00 0.00 0.00 3 1011.6
20260507071903 7 148 3.2 14.5 0.00 0.00 0.00 3 1011.6
20260507071404 7 145 3.2 9.7 0.00 0.00 0.00 3 1011.6
20260507070904 7 138 3.2 11.3 0.00 0.00 0.00 3 1011.6
20260507070403 7 136 6.4 19.3 0.00 0.00 0.00 3 1011.4
20260507064405 7 130 1.6 12.9 0.00 0.00 0.00 3 1011.5
20260507061904 7 145 6.4 22.5 0.00 0.00 0.00 3 1011.4
20260507061404 7 138 0.0 9.7 0.00 0.00 0.00 3 1011.4
20260507060403 7 153 4.8 14.5 0.00 0.00 0.00 3 1011.3
20260507054404 6 142 1.6 8.0 0.00 0.00 0.00 3 1011.3
20260507053404 6 146 3.2 19.3 0.00 0.00 0.00 3 1011.3
20260507051404 6 148 1.6 8.0 0.00 0.00 0.00 3 1011.2
20260507050903 6 128 0.0 8.0 0.00 0.00 0.00 3 1011.2
20260507044403 6 140 1.6 11.3 0.00 0.00 0.00 3 1011.2
20260507043405 6 141 3.2 16.1 0.00 0.00 0.00 3 1011.2
20260507041404 6 123 4.8 19.3 0.00 0.00 0.00 3 1011.2
20260507040904 6 143 4.8 16.1 0.00 0.00 0.00 3 1011.3
20260507040404 6 129 3.2 16.1 0.00 0.00 0.00 3 1011.3
20260507033903 6 136 1.6 8.0 0.00 0.00 0.00 3 1011.3
20260507033404 6 144 4.8 19.3 0.00 0.00 0.00 3 1011.3
20260507030903 6 155 3.2 9.7 0.00 0.00 0.00 3 1011.4
20260507024903 6 119 0.0 8.0 0.00 0.00 0.00 3 1011.5
20260507024405 6 139 1.6 12.9 0.00 0.00 0.00 3 1011.5
20260507023404 6 132 3.2 14.5 0.00 0.00 0.00 3 1011.6
20260507021904 7 126 0.0 4.8 0.00 0.00 0.00 3 1011.5
20260507020903 7 69 0.0 4.8 0.00 0.00 0.00 3 1011.5
20260507020404 7 126 0.0 9.7 0.00 0.00 0.00 3 1011.5
20260507014404 7 114 3.2 11.3 0.00 0.00 0.00 3 1011.6
20260507011404 7 120 0.0 19.3 0.00 0.00 0.00 3 1011.7
20260507010404 7 103 3.2 19.3 0.00 0.00 0.00 3 1011.7
20260507003904 7 135 4.8 19.3 0.00 0.00 0.00 3 1011.8
20260507001403 7 135 8.0 16.1 0.00 0.00 0.00 3 1012.0
20260507000904 7 138 4.8 16.1 0.00 0.00 0.00 3 1012.0
20260506234904 7 130 1.6 4.8 0.00 0.00 0.00 3 1011.8
20260506234404 7 130 3.2 11.3 0.00 0.00 0.00 3 1011.8
20260506233903 7 135 0.0 14.5 0.00 0.00 0.00 3 1011.8
20260506231404 7 114 3.2 12.9 0.00 0.00 0.00 3 1011.7
20260506230405 7 86 3.2 11.3 0.00 0.00 0.00 3 1011.7
20260506224904 7 123 3.2 12.9 0.00 0.00 0.00 3 1011.7
20260506223904 7 128 3.2 11.3 0.00 0.00 0.00 3 1011.6
20260506223403 7 132 0.0 9.7 0.00 0.00 0.00 3 1011.6
20260506221903 7 140 3.2 9.7 0.00 0.00 0.00 9 1011.6
20260506214904 8 135 6.4 19.3 0.00 0.00 0.00 23 1011.4
20260506214404 8 135 3.2 12.9 0.00 0.00 0.00 25 1011.3
20260506213903 8 136 8.0 27.4 0.00 0.00 0.00 27 1011.3
20260506213403 8 75 4.8 19.3 0.00 0.00 0.00 29 1011.3
20260506211904 8 124 3.2 14.5 0.00 0.00 0.00 36 1011.3
20260506210404 8 111 1.6 19.3 0.00 0.00 0.00 42 1011.3
20260506204904 8 81 1.6 9.7 0.00 0.00 0.00 44 1011.2
20260506204405 8 97 1.6 8.0 0.00 0.00 0.00 45 1011.2
20260506203904 8 109 1.6 8.0 0.00 0.00 0.00 47 1011.2
20260506201903 10 76 3.2 14.5 0.00 0.00 0.00 49 1010.9
20260506194904 11 126 1.6 8.0 0.00 0.00 0.00 50 1010.5
20260506194404 11 113 0.0 1.6 0.00 0.00 0.00 49 1010.4
20260506193904 11 114 0.0 4.8 0.00 0.00 0.00 49 1010.4
20260506191905 11 88 1.6 4.8 0.00 0.00 0.00 49 1010.3
20260506191404 11 81 0.0 4.8 0.00 0.00 0.00 49 1010.2
20260506184405 11 94 0.0 8.0 0.00 0.00 0.00 47 1010.2
20260506183904 11 114 1.6 8.0 0.00 0.00 0.00 47 1010.2
20260506183405 11 125 3.2 9.7 0.00 0.00 0.00 46 1010.2
20260506181403 12 71 0.0 3.2 0.00 0.00 0.00 44 1010.1
20260506180904 12 72 1.6 4.8 0.00 0.00 0.00 45 1010.1
20260506174404 12 54 1.6 8.0 0.00 0.00 0.00 44 1010.2
20260506164903 12 63 1.6 8.0 0.00 0.00 0.00 40 1010.2
20260506161904 12 97 1.6 8.0 0.00 0.00 0.00 40 1010.4
20260506161404 12 82 0.0 4.8 0.00 0.00 0.00 40 1010.4
20260506160904 12 73 1.6 16.1 0.00 0.00 0.00 43 1010.4
20260506160403 12 79 0.0 4.8 0.00 0.00 0.00 42 1010.4
20260506153904 12 26 1.6 4.8 0.00 0.00 0.00 39 1010.5
20260506151404 12 56 6.4 11.3 0.00 0.00 0.00 39 1010.6
20260506150904 12 111 0.0 0.0 0.00 0.00 0.00 42 1010.6
20260506144903 12 88 0.0 4.8 0.00 0.00 0.00 40 1010.7
20260506144405 12 54 1.6 8.0 0.00 0.00 0.00 42 1010.7
20260506143904 12 133 1.6 9.7 0.00 0.00 0.00 40 1010.8
20260506134405 12 139 3.2 11.3 0.00 0.00 0.00 41 1011.2
20260506133404 12 139 1.6 16.1 0.00 0.00 0.00 44 1011.2
20260506130904 12 96 0.0 8.0 0.00 0.00 0.00 40 1011.3
20260506130404 12 71 1.6 11.3 0.00 0.00 0.00 43 1011.3
20260506120903 12 82 1.6 9.7 0.00 0.00 0.00 41 1011.7
20260506120403 12 75 1.6 16.1 0.00 0.00 0.00 41 1011.7
20260506113905 11 95 1.6 4.8 0.00 0.00 0.00 34 1011.7